S51UL-6 Weather Reports


Display with metric or nautical units.
time (UTC)temp
F
wind
direction
speed
MPH
gust
MPH
rain 1hr
in
rain 24hr
in
rain mn
in
humidity
%
barometer
mb
20260901195131 62 135 0.0 0.0 1.84 9.04 0.00 74 1021.4
20260901194631 62 135 0.0 0.0 1.77 8.96 0.00 74 1021.1
20260901193131 63 135 0.0 0.0 1.77 8.71 0.00 73 1021.0
20260901192631 63 135 0.0 0.0 1.10 8.00 0.00 72 1021.0
20260901192131 63 135 0.0 0.0 1.18 7.98 0.00 72 1021.1
20260901191631 64 135 0.0 0.0 1.18 7.98 0.00 71 1021.3
20260901190631 64 135 0.0 0.0 0.96 7.57 0.00 70 1020.9
20260901190132 64 135 0.0 0.0 0.98 7.36 0.00 70 1021.0
20260901185631 65 135 0.0 0.0 0.82 7.20 0.00 70 1021.0
20260901185131 65 135 0.0 0.0 0.87 7.18 0.00 69 1021.0
20260901184632 65 135 0.0 0.0 0.75 7.06 0.00 68 1020.9
20260901184131 65 135 0.0 0.0 0.92 7.06 0.00 67 1020.7
20260901183132 66 135 0.0 0.0 0.85 6.90 0.00 66 1020.6
20260901182131 67 135 0.0 0.0 1.41 6.79 0.00 65 1020.6
20260901181633 68 135 0.0 0.0 1.41 6.79 0.00 64 1020.7
20260901180632 69 135 0.0 0.0 1.22 6.61 0.00 62 1020.6
20260901180132 69 135 0.0 0.0 1.00 6.39 0.00 61 1020.5
20260901175633 70 135 0.0 0.0 0.92 6.30 0.00 59 1020.5
20260901174134 72 135 0.0 0.0 0.77 6.14 0.00 57 1020.0
20260901173632 72 158 0.0 0.0 0.67 6.04 0.00 56 1020.0
20260901173133 73 158 0.0 0.0 0.16 5.53 0.00 55 1020.1
20260901172633 73 135 0.0 0.0 0.12 5.49 0.00 54 1020.0
20260901172132 74 158 0.0 0.0 0.16 5.39 0.00 54 1020.0
20260901171633 74 135 0.0 0.0 0.16 5.39 0.00 54 1019.7
20260901171132 74 135 0.0 0.0 0.24 5.39 0.00 54 1020.0
20260901170133 75 135 0.0 0.0 0.51 5.39 0.00 53 1019.9
20260901164633 76 135 0.0 0.0 0.57 5.37 0.00 53 1020.0
20260901164133 76 135 0.0 0.0 0.71 5.37 0.00 53 1020.0
20260901163634 77 135 0.0 0.0 0.92 5.37 0.00 53 1019.8
20260901161134 78 135 0.0 0.0 1.12 5.06 0.00 51 1019.9
20260901160636 78 158 1.0 3.0 1.20 5.06 0.00 51 1020.1
20260901160133 78 135 2.0 3.0 1.22 4.88 0.00 51 1020.1
20260901155633 78 135 0.0 3.0 1.14 4.79 0.00 51 1020.0
20260901155134 79 135 0.0 2.0 1.22 4.79 0.00 51 1020.0
20260901154134 79 135 0.0 3.0 1.39 4.65 0.00 51 1020.2
20260901153634 79 135 1.0 3.0 1.24 4.45 0.00 50 1020.3
20260901152133 80 135 1.0 4.0 1.08 4.04 0.00 50 1020.2
20260901145634 82 135 0.0 3.0 0.80 3.57 0.00 49 1020.3
20260901144634 82 135 0.0 0.0 0.49 3.26 0.00 49 1020.3
20260901143635 81 135 0.0 3.0 0.67 3.20 0.00 50 1020.2
20260901143134 81 135 1.0 3.0 0.61 3.14 0.00 49 1020.4
20260901142634 81 158 0.0 2.0 0.73 3.08 0.00 49 1020.5
20260901141634 83 158 0.0 0.0 0.82 2.96 0.00 46 1020.7
20260901140638 84 135 2.0 7.0 0.80 2.84 0.00 46 1020.7
20260901135635 83 158 5.0 9.0 0.92 2.77 0.00 45 1020.6
20260901135134 83 158 2.0 4.0 0.92 2.77 0.00 46 1020.6
20260901134136 83 158 7.0 9.0 1.06 2.75 0.00 44 1020.9
20260901132637 86 180 4.0 8.0 0.71 2.18 0.00 43 1020.7
20260901131135 85 135 2.0 4.0 0.63 2.04 0.00 45 1021.1
20260901130638 84 135 3.0 6.0 0.63 2.04 0.00 45 1021.0
20260901130135 84 158 4.0 6.0 0.69 2.04 0.00 44 1021.2
20260901125636 85 158 5.0 7.0 0.53 1.86 0.00 41 1021.1
20260901123637 87 135 4.0 6.0 0.26 1.55 0.00 44 1021.1
20260901122136 88 158 2.0 4.0 0.32 1.43 0.00 44 1021.2
20260901121636 88 135 1.0 4.0 0.32 1.43 0.00 46 1021.4
20260901121136 87 135 3.0 9.0 0.32 1.41 0.00 46 1021.4
20260901120136 88 158 4.0 5.0 0.32 1.34 0.00 44 1021.5
20260901115136 88 158 3.0 6.0 0.35 1.32 0.00 45 1021.7
20260901114137 87 158 6.0 7.0 0.39 1.30 0.00 45 1021.8
20260901113637 87 158 5.0 7.0 0.41 1.28 0.00 45 1021.9
20260901113136 87 158 4.0 5.0 0.24 1.12 0.00 44 1021.9
20260901111636 90 158 5.0 6.0 0.26 1.10 0.00 44 1021.8
20260901111139 90 158 4.0 6.0 0.32 1.08 0.00 44 1022.1
20260901110636 89 135 4.0 5.0 0.32 1.08 0.00 45 1022.2
20260901110138 89 135 3.0 5.0 0.30 1.02 0.00 48 1022.1
20260901105637 89 135 1.0 5.0 0.35 0.98 0.00 50 1022.1
20260901104638 85 158 5.0 8.0 0.28 0.92 0.00 52 1022.2
20260901104137 84 158 4.0 8.0 0.47 0.92 0.00 52 1022.1
20260901103637 83 158 3.0 6.0 0.61 0.87 0.00 55 1022.2
20260901103137 82 135 3.0 6.0 0.57 0.84 0.00 56 1022.2
20260901102138 80 135 2.0 4.0 0.67 0.84 0.00 58 1022.3
20260901100637 79 158 3.0 8.0 0.61 0.71 0.00 62 1022.3
20260901095639 79 158 2.0 5.0 0.49 0.63 0.00 67 1022.4
20260901093137 76 68 0.0 0.0 0.10 0.24 0.00 72 1022.5
20260901092640 76 135 0.0 0.0 0.04 0.18 0.00 72 1022.4
20260901092139 75 135 0.0 0.0 0.02 0.16 0.00 73 1022.5
20260901091138 74 68 0.0 0.0 0.00 0.14 0.00 74 1022.7
20260901085640 73 68 0.0 0.0 0.00 0.14 0.00 77 1022.8
20260901085138 73 68 0.0 0.0 0.00 0.14 0.00 78 1022.7
20260901084638 72 68 0.0 0.0 0.00 0.14 0.00 78 1022.7
20260901084139 73 68 0.0 0.0 0.00 0.14 0.00 78 1022.8
20260901083639 73 68 0.0 0.0 0.00 0.14 0.00 79 1022.6
20260901082138 73 45 0.0 0.0 0.00 0.14 0.00 84 1022.5
20260901080639 69 45 0.0 0.0 0.00 0.14 0.00 89 1022.7
20260901080139 68 45 0.0 0.0 0.00 0.14 0.00 90 1022.5
20260901075139 66 45 0.0 0.0 0.00 0.14 0.00 88 1022.5
20260901073639 66 45 0.0 0.0 0.00 0.14 0.00 89 1022.7
20260901073140 66 23 0.0 0.0 0.00 0.14 0.00 90 1022.5
20260901072639 65 23 0.0 0.0 0.00 0.14 0.00 90 1022.5
20260901072139 65 23 0.0 0.0 0.00 0.14 0.00 90 1022.3
20260901064140 62 23 0.0 0.0 0.00 0.14 0.00 90 1022.2
20260901063140 62 23 0.0 0.0 0.00 0.16 0.00 90 1021.9
20260901061140 62 23 0.0 0.0 0.00 0.16 0.00 90 1022.0
20260901060141 62 23 0.0 0.0 0.00 0.16 0.00 90 1021.9
20260901054141 61 23 0.0 0.0 0.00 0.16 0.00 90 1021.8
20260901053641 61 23 0.0 0.0 0.00 0.16 0.00 90 1021.9
20260901052140 61 23 0.0 0.0 0.00 0.28 0.00 90 1021.6
20260901051640 61 23 0.0 0.0 0.00 0.28 0.00 90 1021.5
20260901051140 60 23 0.0 0.0 0.00 0.28 0.00 90 1021.6
20260901050641 60 23 0.0 0.0 0.00 0.28 0.00 90 1021.5
20260901045141 60 23 0.0 0.0 0.00 0.28 0.00 90 1021.2
20260901044141 60 23 0.0 0.0 0.00 0.28 0.00 90 1021.4
20260901043643 60 23 0.0 0.0 0.00 0.28 0.00 90 1021.4
20260901043142 60 23 0.0 0.0 0.00 0.39 0.00 90 1021.4
20260901041641 60 23 0.0 0.0 0.00 0.39 0.00 90 1021.1
20260901041141 60 23 0.0 0.0 0.00 0.39 0.00 90 1021.0
20260901040141 60 23 0.0 0.0 0.00 0.39 0.00 89 1020.8
20260901034642 60 23 0.0 0.0 0.00 0.39 0.00 89 1020.8
20260901032142 61 23 0.0 0.0 0.00 0.63 0.00 89 1020.1
20260901031142 61 23 0.0 0.0 0.00 0.63 0.00 89 1020.2
20260901030643 61 23 0.0 0.0 0.00 0.63 0.00 89 1020.3
20260901030142 61 23 0.0 0.0 0.00 0.63 0.00 89 1020.7
20260901025642 61 23 0.0 0.0 0.00 0.63 0.00 89 1020.6
20260901024642 60 23 0.0 0.0 0.00 0.63 0.00 89 1020.9
20260901024142 60 23 0.0 0.0 0.00 0.63 0.00 89 1020.9
20260901023643 60 23 0.0 0.0 0.00 0.63 0.00 88 1020.6
20260901022644 60 23 0.0 0.0 0.00 0.63 0.00 88 1020.9
20260901020142 60 23 0.0 0.0 0.00 0.63 0.00 88 1020.8
20260901015143 60 23 0.0 0.0 0.00 0.63 0.00 88 1020.5
20260901014643 60 23 0.0 0.0 0.00 0.63 0.00 88 1020.5
20260901013646 60 23 0.0 0.0 0.00 0.63 0.00 88 1020.6
20260901013143 60 23 0.0 0.0 0.00 0.63 0.00 88 1020.6
20260901011143 60 23 0.0 0.0 0.00 0.63 0.00 88 1020.6
20260901010643 60 23 0.0 0.0 0.00 0.63 0.00 88 1020.5
20260901010143 60 23 0.0 0.0 0.00 0.63 0.00 88 1020.6
20260901005646 60 23 0.0 0.0 0.00 0.63 0.00 88 1020.4
20260901005143 60 23 0.0 0.0 0.00 0.63 0.00 88 1020.5
20260901004643 60 23 0.0 0.0 0.02 0.63 0.00 88 1020.5
20260901004143 61 23 0.0 0.0 0.02 0.63 0.00 88 1020.4
20260901003143 61 23 0.0 0.0 0.02 0.63 0.00 88 1020.5
20260901002644 61 23 0.0 0.0 0.02 0.63 0.00 88 1020.5
20260901002144 61 23 0.0 0.0 0.02 0.63 0.00 88 1020.6
20260901001144 61 23 0.0 0.0 0.02 0.63 0.00 88 1020.6
20260901000644 61 23 0.0 0.0 0.02 0.63 0.00 88 1020.4
20260901000144 61 23 0.0 0.0 0.02 0.63 0.00 88 1020.4
20260831235645 61 23 0.0 0.0 0.02 0.63 0.00 87 1020.3
20260831234644 61 23 0.0 0.0 0.00 0.61 0.00 87 1020.4
20260831234145 61 23 0.0 0.0 0.00 0.61 0.00 87 1020.3
20260831233644 61 23 0.0 0.0 0.00 0.61 0.00 87 1020.2
20260831233145 61 23 0.0 0.0 0.00 0.61 0.00 86 1020.3
20260831232144 61 23 0.0 0.0 0.00 0.61 0.00 86 1020.3
20260831230644 61 23 0.0 0.0 0.00 0.61 0.00 86 1020.3
20260831230145 61 23 0.0 0.0 0.00 0.61 0.00 86 1020.5
20260831225645 61 23 0.0 0.0 0.00 0.61 0.00 86 1020.6
20260831225146 61 23 0.0 0.0 0.00 0.61 0.00 86 1020.8
20260831224645 61 23 0.0 0.0 0.02 0.61 0.00 86 1020.5
20260831223645 61 338 0.0 0.0 0.04 0.61 0.00 85 1020.6
20260831223145 61 338 0.0 0.0 0.04 0.61 0.00 85 1020.6
20260831222646 61 338 0.0 0.0 0.08 0.61 0.00 85 1020.6
20260831222145 61 338 0.0 0.0 0.08 0.61 0.00 85 1020.9
20260831221646 61 338 0.0 0.0 0.12 0.61 0.00 84 1021.1
20260831221145 61 270 0.0 0.0 0.12 0.61 0.00 84 1021.1
20260831220645 61 270 0.0 0.0 0.12 0.61 0.00 84 1021.3
20260831220146 61 270 0.0 0.0 0.12 0.61 0.00 84 1021.5
20260831215646 61 270 0.0 0.0 0.12 0.61 0.00 83 1021.1
20260831215145 61 0 0.0 0.0 0.12 0.61 0.00 83 1021.2
20260831214146 62 338 0.0 0.0 0.10 0.59 0.00 83 1020.8
20260831213645 62 338 1.0 3.0 0.08 0.57 0.00 82 1020.9
20260831212646 63 338 0.0 0.0 0.04 0.53 0.00 81 1021.3
20260831212146 65 338 2.0 6.0 0.00 0.49 0.00 79 1021.1
20260831211646 66 338 5.0 7.0 0.00 0.49 0.00 76 1020.8
20260831211146 67 0 8.0 13.0 0.00 0.49 0.00 74 1020.9
20260831210647 68 338 8.0 13.0 0.00 0.49 0.00 73 1020.5
20260831210146 68 338 4.0 9.0 0.00 0.49 0.00 76 1020.4
20260831205646 68 23 3.0 9.0 0.00 0.49 0.00 76 1019.9
20260831205146 68 23 3.0 5.0 0.00 0.49 0.00 77 1019.7
20260831204646 68 23 4.0 7.0 0.00 0.49 0.00 77 1019.3
20260831204146 68 23 3.0 7.0 0.00 0.49 0.00 77 1018.9
20260831203147 68 23 0.0 0.0 0.00 0.49 0.00 76 1018.2
20260831202647 68 23 0.0 0.0 0.00 0.49 0.00 76 1018.2
20260831202146 68 23 1.0 4.0 0.00 0.49 0.00 76 1018.0
20260831201146 68 0 0.0 0.0 0.00 0.49 0.00 76 1018.0
20260831200146 68 23 0.0 4.0 0.00 0.49 0.00 76 1017.9
20260831195648 68 23 1.0 5.0 0.00 0.49 0.00 76 1017.9